H1 CPF 2 NER 2022 11 24 9 328 01 glonass133 H2 1403201 9133 40001 2022 11 24 0 0 0 2022 11 27 23 45 0 900 1 1 0 0 0 1 H9 10 0 59907 0.00000 0 -6061722.773 23013275.607 9146247.663 10 0 59907 900.00000 0 -6245366.228 23956899.207 6082623.969 10 0 59907 1800.00000 0 -6233318.040 24548071.434 2900636.581 10 0 59907 2700.00000 0 -6074147.128 24755209.339 -337804.408 10 0 59907 3600.00000 0 -5821985.924 24559332.546 -3569670.476 10 0 59907 4500.00000 0 -5533996.019 23954920.644 -6732050.481 10 0 59907 5400.00000 0 -5267710.024 22950221.774 -9763384.995 10 0 59907 6300.00000 0 -5078363.644 21566998.795 -12604674.044 10 0 59907 7200.00000 0 -5016332.346 19839723.379 -15200633.520 10 0 59907 8100.00000 0 -5124782.420 17814251.902 -17500776.940 10 0 59907 9000.00000 0 -5437636.973 15546038.988 -19460400.910 10 0 59907 9900.00000 0 -5977943.626 13097964.064 -21041454.756 10 0 59907 10800.00000 0 -6756713.485 10537862.404 -22213277.563 10 0 59907 11700.00000 0 -7772280.679 7935864.229 -22953188.675 10 0 59907 12600.00000 0 -9010209.587 5361653.246 -23246920.793 10 0 59907 13500.00000 0 -10443753.654 2881758.756 -23088888.109 10 0 59907 14400.00000 0 -12034846.534 556993.667 -22482285.109 10 0 59907 15300.00000 0 -13735583.852 -1559855.749 -21439014.972 10 0 59907 16200.00000 0 -15490133.558 -3425993.441 -19979449.682 10 0 59907 17100.00000 0 -17236994.895 -5010150.397 -18132027.032 10 0 59907 18000.00000 0 -18911511.585 -6293632.416 -15932692.741 10 0 59907 18900.00000 0 -20448534.330 -7270837.163 -13424198.679 10 0 59907 19800.00000 0 -21785121.530 -7949220.837 -10655270.875 10 0 59907 20700.00000 0 -22863165.500 -8348717.726 -7679663.432 10 0 59907 21600.00000 0 -23631834.554 -8500638.915 -4555116.500 10 0 59907 22500.00000 0 -24049729.108 -8446097.714 -1342238.372 10 0 59907 23400.00000 0 -24086661.686 -8234029.211 1896666.736 10 0 59907 24300.00000 0 -23724986.476 -7918888.210 5098802.686 10 0 59907 25200.00000 0 -22960422.822 -7558123.043 8202094.112 10 0 59907 26100.00000 0 -21802338.056 -7209532.073 11146384.450 10 0 59907 27000.00000 0 -20273477.619 -6928614.430 13874596.433 10 0 59907 27900.00000 0 -18409153.278 -6766026.644 16333832.990 10 0 59907 28800.00000 0 -16255922.769 -6765252.342 18476397.586 10 0 59907 29700.00000 0 -13869815.170 -6960583.186 20260714.801 10 0 59907 30600.00000 0 -11314174.954 -7375496.228 21652133.849 10 0 59907 31500.00000 0 -8657213.517 -8021496.375 22623599.864 10 0 59907 32400.00000 0 -5969368.821 -8897473.345 23156180.356 10 0 59907 33300.00000 0 -3320581.768 -9989601.166 23239436.744 10 0 59907 34200.00000 0 -777601.431 -11271785.753 22871633.665 10 0 59907 35100.00000 0 1598569.883 -12706643.337 22059781.631 10 0 59907 36000.00000 0 3754986.388 -14246970.388 20819511.532 10 0 59907 36900.00000 0 5648727.866 -15837644.984 19174782.554 10 0 59907 37800.00000 0 7248446.476 -17417881.326 17157428.120 10 0 59907 38700.00000 0 8535427.145 -18923743.974 14806547.573 10 0 59907 39600.00000 0 9504117.354 -20290816.913 12167754.411 10 0 59907 40500.00000 0 10162104.373 -21456915.556 9292294.872 10 0 59907 41400.00000 0 10529541.187 -22364727.422 6236053.392 10 0 59907 42300.00000 0 10638045.586 -22964269.647 3058464.205 10 0 59907 43200.00000 0 10529119.437 -23215058.819 -178649.592 10 0 59907 44100.00000 0 10252155.686 -23087900.494 -3412286.340 10 0 59907 45000.00000 0 9862118.309 -22566221.643 -6579500.999 10 0 59907 45900.00000 0 9416994.617 -21646888.720 -9618640.089 10 0 59907 46800.00000 0 8975129.062 -20340475.815 -12470551.254 10 0 59907 47700.00000 0 8592552.775 -18670970.931 -15079742.707 10 0 59907 48600.00000 0 8320423.124 -16674932.319 -17395469.138 10 0 59907 49500.00000 0 8202682.682 -14400130.166 -19372722.358 10 0 59907 50400.00000 0 8274037.408 -11903730.769 -20973107.024 10 0 59907 51300.00000 0 8558339.953 -9250099.458 -22165584.569 10 0 59907 52200.00000 0 9067446.547 -6508314.326 -22927071.204 10 0 59907 53100.00000 0 9800595.618 -3749494.793 -23242879.017 10 0 59907 54000.00000 0 10744334.138 -1044056.220 -23106992.398 10 0 59907 54900.00000 0 11872994.470 1540995.462 -22522175.273 10 0 59907 55800.00000 0 13149701.376 3944617.189 -21499907.898 10 0 59907 56700.00000 0 14527866.613 6114025.126 -20060155.136 10 0 59907 57600.00000 0 15953108.239 8006639.825 -18230971.300 10 0 59907 58500.00000 0 17365514.026 9591600.799 -16047949.579 10 0 59907 59400.00000 0 18702154.080 10850789.265 -13553526.981 10 0 59907 60300.00000 0 19899737.497 11779318.372 -10796158.274 10 0 59907 61200.00000 0 20897301.756 12385472.273 -7829374.988 10 0 59907 62100.00000 0 21638822.340 12690098.485 -4710747.579 10 0 59907 63000.00000 0 22075633.313 12725480.616 -1500770.711 10 0 59907 63900.00000 0 22168557.470 12533740.119 1738306.822 10 0 59907 64800.00000 0 21889656.805 12164835.363 4943685.054 10 0 59907 65700.00000 0 21223529.840 11674242.904 8053225.626 10 0 59907 66600.00000 0 20168101.225 11120419.057 11006651.016 10 0 59907 67500.00000 0 18734870.191 10562148.852 13746707.357 10 0 59907 68400.00000 0 16948606.827 10055894.036 16220268.710 10 0 59907 69300.00000 0 14846508.157 9653251.672 18379361.788 10 0 59907 70200.00000 0 12476848.259 9398630.171 20182091.834 10 0 59907 71100.00000 0 9897177.545 9327240.464 21593452.231 10 0 59907 72000.00000 0 7172144.973 9463486.851 22586002.599 10 0 59907 72900.00000 0 4371032.429 9819825.473 23140402.596 10 0 59907 73800.00000 0 1565102.357 10396138.943 23245791.247 10 0 59907 74700.00000 0 -1175132.376 11179654.250 22900004.323 10 0 59907 75600.00000 0 -3782604.232 12145408.544 22109625.234 10 0 59907 76500.00000 0 -6196241.362 13257244.541 20889867.754 10 0 59907 77400.00000 0 -8363267.273 14469295.147 19264292.023 10 0 59907 78300.00000 0 -10241154.660 15727896.289 17264358.274 10 0 59907 79200.00000 0 -11799152.383 16973848.692 14928825.858 10 0 59907 80100.00000 0 -13019321.928 18144934.281 12303008.217 10 0 59907 81000.00000 0 -13897040.195 19178581.711 9437897.468 10 0 59907 81900.00000 0 -14440947.689 20014568.665 6389174.985 10 0 59907 82800.00000 0 -14672344.465 20597646.478 3216127.109 10 0 59907 83700.00000 0 -14624059.734 20879975.446 -19512.737 10 0 59907 84600.00000 0 -14338843.415 20823266.861 -3254772.505 10 0 59907 85500.00000 0 -13867348.395 20400539.957 -6426676.026 10 0 59908 0.00000 0 -13265789.950 19597418.375 -9473478.259 10 0 59908 900.00000 0 -12593382.189 18412909.653 -12335877.718 10 0 59908 1800.00000 0 -11909662.092 16859635.050 -14958177.228 10 0 59908 2700.00000 0 -11271814.467 14963497.789 -17289375.037 10 0 59908 3600.00000 0 -10732112.790 12762804.207 -19284160.306 10 0 59908 4500.00000 0 -10335584.568 10306874.093 -20903794.893 10 0 59908 5400.00000 0 -10118000.330 7654198.486 -22116864.125 10 0 59908 6300.00000 0 -10104271.259 4870221.963 -22899882.307 10 0 59908 7200.00000 0 -10307322.833 2024842.144 -23237741.778 10 0 59908 8100.00000 0 -10727491.512 -810269.460 -23123997.615 10 0 59908 9000.00000 0 -11352469.305 -3564414.020 -22560983.274 10 0 59908 9900.00000 0 -12157797.892 -6170565.561 -21559755.745 10 0 59908 10800.00000 0 -13107890.903 -8567913.387 -20139872.040 10 0 59908 11700.00000 0 -14157540.897 -10704142.169 -18329001.851 10 0 59908 12600.00000 0 -15253847.292 -12537356.212 -16162384.352 10 0 59908 13500.00000 0 -16338484.032 -14037569.469 -13682139.885 10 0 59908 14400.00000 0 -17350211.612 -15187700.964 -10936449.905 10 0 59908 15300.00000 0 -18227527.930 -15984035.854 -7978621.152 10 0 59908 16200.00000 0 -18911346.667 -16436134.664 -4866052.041 10 0 59908 17100.00000 0 -19347590.753 -16566196.144 -1659121.158 10 0 59908 18000.00000 0 -19489592.039 -16407901.860 1579980.675 10 0 59908 18900.00000 0 -19300196.356 -16004792.228 4788452.314 10 0 59908 19800.00000 0 -18753485.487 -15408243.101 7904095.143 10 0 59908 20700.00000 0 -17836043.506 -14675128.536 10866513.484 10 0 59908 21600.00000 0 -16547713.965 -13865268.397 13618279.679 10 0 59908 22500.00000 0 -14901815.527 -13038768.150 16106041.668 10 0 59908 23400.00000 0 -12924806.197 -12253362.655 18281552.010 10 0 59908 24300.00000 0 -10655409.073 -11561875.363 20102598.947 10 0 59908 25200.00000 0 -8143234.801 -11009899.429 21533822.047 10 0 59908 26100.00000 0 -5446956.715 -10633797.979 22547397.023 10 0 59908 27000.00000 0 -2632113.093 -10459107.421 23123576.849 10 0 59908 27900.00000 0 231373.738 -10499410.982 23251078.873 10 0 59908 28800.00000 0 3071859.790 -10755730.190 22927310.285 10 0 59908 29700.00000 0 5818714.114 -11216460.471 22158427.259 10 0 59908 30600.00000 0 8405013.469 -11857854.497 20959225.947 10 0 59908 31500.00000 0 10770085.749 -12645033.989 19352866.583 10 0 59908 32400.00000 0 12861797.108 -13533488.544 17370435.024 10 0 59908 33300.00000 0 14638487.900 -14470999.441 15050349.106 10 0 59908 34200.00000 0 16070476.768 -15399908.171 12437620.368 10 0 59908 35100.00000 0 17141070.098 -16259634.599 9582984.613 10 0 59908 36000.00000 0 17847034.570 -16989338.544 6541917.637 10 0 59908 36900.00000 0 18198512.978 -17530612.074 3373555.095 10 0 59908 37800.00000 0 18218387.093 -17830087.984 139537.706 10 0 59908 38700.00000 0 17941114.829 -17841853.112 -3097195.241 10 0 59908 39600.00000 0 17411091.376 -17529563.126 -6273639.656 10 0 59908 40500.00000 0 16680604.418 -16868167.980 -9327962.621 10 0 59908 41400.00000 0 15807470.903 -15845173.710 -12200715.447 10 0 59908 42300.00000 0 14852456.391 -14461386.072 -14835998.979 10 0 59908 43200.00000 0 13876587.258 -12731103.614 -17182557.628 10 0 59908 44100.00000 0 12938470.298 -10681751.224 -19194780.214 10 0 59908 45000.00000 0 12091733.740 -8352969.084 -20833587.754 10 0 59908 45900.00000 0 11382698.127 -5795194.871 -22067191.033 10 0 59908 46800.00000 0 10848375.376 -3067798.382 -22871703.550 10 0 59908 47700.00000 0 10514880.078 -236846.455 -23231598.524 10 0 59908 48600.00000 0 10396319.366 2627408.730 -23140001.861 10 0 59908 49500.00000 0 10494207.240 5453213.656 -22598816.219 10 0 59908 50400.00000 0 10797427.059 8170058.433 -21618674.592 10 0 59908 51300.00000 0 11282742.767 10711369.281 -20218725.007 10 0 59908 52200.00000 0 11915836.452 13017037.542 -18426251.089 10 0 59908 53100.00000 0 12652827.802 15035681.096 -16276136.254 10 0 59908 54000.00000 0 13442210.952 16726545.515 -13810182.165 10 0 59908 54900.00000 0 14227126.815 18060967.270 -11076294.715 10 0 59908 55800.00000 0 14947875.029 19023339.546 -8127553.378 10 0 59908 56700.00000 0 15544559.715 19611541.972 -5021181.854 10 0 59908 57600.00000 0 15959757.655 19836817.878 -1817439.833 10 0 59908 58500.00000 0 16141096.605 19723105.558 1421542.734 10 0 59908 59400.00000 0 16043635.254 19305852.859 4632966.429 10 0 59908 60300.00000 0 15631944.589 18630365.716 7754575.212 10 0 59908 61200.00000 0 14881802.973 17749760.671 10725857.943 10 0 59908 62100.00000 0 13781433.321 16722607.749 13489215.676 10 0 59908 63000.00000 0 12332229.787 15610362.778 15991072.514 10 0 59908 63900.00000 0 10548942.693 14474696.918 18182908.891 10 0 59908 64800.00000 0 8459312.799 13374835.184 20022197.834 10 0 59908 65700.00000 0 6103168.806 12365015.309 21473226.599 10 0 59908 66600.00000 0 3531024.252 11492173.115 22507788.195 10 0 59908 67500.00000 0 802230.507 10793951.138 23105729.794 10 0 59908 68400.00000 0 -2017239.017 10297113.783 23255347.581 10 0 59908 69300.00000 0 -4857282.994 10016435.451 22953620.265 10 0 59908 70200.00000 0 -7646342.598 9954108.500 22206276.443 10 0 59908 71100.00000 0 -10314138.674 10099696.293 21027693.834 10 0 59908 72000.00000 0 -12794362.887 10430633.961 19440631.501 10 0 59908 72900.00000 0 -15027211.720 10913256.547 17475799.215 10 0 59908 73800.00000 0 -16961658.283 11504312.044 15171271.228 10 0 59908 74700.00000 0 -18557367.263 12152896.227 12571754.810 10 0 59908 75600.00000 0 -19786173.015 12802728.096 9727726.906 10 0 59908 76500.00000 0 -20633058.783 13394670.009 6694455.085 10 0 59908 77400.00000 0 -21096595.757 13869385.687 3530921.642 10 0 59908 78300.00000 0 -21188823.503 14170023.073 298671.936 10 0 59908 79200.00000 0 -20934576.902 14244807.487 -2939390.129 10 0 59908 80100.00000 0 -20370288.327 14049434.059 -6120235.110 10 0 59908 81000.00000 0 -19542316.226 13549156.779 -9181944.474 10 0 59908 81900.00000 0 -18504871.520 12720484.287 -12064925.336 10 0 59908 82800.00000 0 -17317630.384 11552409.376 -14713078.628 10 0 59908 83700.00000 0 -16043135.294 10047119.054 -17074897.103 10 0 59908 84600.00000 0 -14744095.001 8220154.196 -19104471.194 10 0 59908 85500.00000 0 -13480698.151 6100011.343 -20762382.746 10 0 59909 0.00000 0 -12308054.385 3727202.994 -22016469.232 10 0 59909 900.00000 0 -11273870.196 1152814.079 -22842444.537 10 0 59909 1800.00000 0 -10416458.694 -1563382.012 -23224363.197 10 0 59909 2700.00000 0 -9763164.212 -4355173.647 -23154922.114 10 0 59909 3600.00000 0 -9329268.636 -7152430.783 -22635592.916 10 0 59909 4500.00000 0 -9117423.605 -9883791.013 -21676583.954 10 0 59909 5400.00000 0 -9117631.250 -12479400.419 -20296633.261 10 0 59909 6300.00000 0 -9307772.944 -14873595.977 -18522637.030 10 0 59909 7200.00000 0 -9654662.683 -17007418.757 -16389121.269 10 0 59909 8100.00000 0 -10115579.693 -18830854.490 -13937567.080 10 0 59909 9000.00000 0 -10640214.970 -20304709.429 -11215602.751 10 0 59909 9900.00000 0 -11172949.208 -21402044.598 -8276078.346 10 0 59909 10800.00000 0 -11655365.737 -22109109.988 -5176040.669 10 0 59909 11700.00000 0 -12028892.400 -22425741.058 -1975628.298 10 0 59909 12600.00000 0 -12237460.909 -22365202.156 1263091.927 10 0 59909 13500.00000 0 -12230071.548 -21953484.605 4477324.600 10 0 59909 14400.00000 0 -11963155.102 -21228089.764 7604758.592 10 0 59909 15300.00000 0 -11402632.388 -20236348.788 10584769.698 10 0 59909 16200.00000 0 -10525584.424 -19033349.958 13359590.119 10 0 59909 17100.00000 0 -9321462.475 -17679560.687 15875422.539 10 0 59909 18000.00000 0 -7792786.454 -16238243.812 18083477.613 10 0 59909 18900.00000 0 -5955301.312 -14772776.189 19940915.323 10 0 59909 19800.00000 0 -3837583.514 -13343981.450 21411672.553 10 0 59909 20700.00000 0 -1480112.539 -12007588.127 22467161.238 10 0 59909 21600.00000 0 1066155.693 -10811918.988 23086824.015 10 0 59909 22500.00000 0 3741655.904 -9795907.816 23258536.781 10 0 59909 23400.00000 0 6480445.147 -8987526.340 22978850.247 10 0 59909 24300.00000 0 9212708.108 -8402686.987 22253065.529 10 0 59909 25200.00000 0 11867433.423 -8044667.471 21095141.634 10 0 59909 26100.00000 0 14375150.901 -7904081.588 19527435.815 10 0 59909 27000.00000 0 16670616.724 -7959397.817 17580280.785 10 0 59909 27900.00000 0 18695335.338 -8177984.326 15291405.886 10 0 59909 28800.00000 0 20399812.944 -8517636.853 12705212.443 10 0 59909 29700.00000 0 21745448.430 -8928525.286 9871916.510 10 0 59909 30600.00000 0 22705982.305 -9355476.828 6846575.034 10 0 59909 31500.00000 0 23268442.461 -9740498.998 3688014.223 10 0 59909 32400.00000 0 23433546.770 -10025435.115 457681.072 10 0 59909 33300.00000 0 23215545.381 -10154638.925 -2781559.100 10 0 59909 34200.00000 0 22641509.380 -10077553.901 -5966654.780 10 0 59909 35100.00000 0 21750096.130 -9751086.553 -9035605.091 10 0 59909 36000.00000 0 20589843.939 -9141671.815 -11928676.092 10 0 59909 36900.00000 0 19217068.763 -8226941.646 -14589571.734 10 0 59909 37800.00000 0 17693452.594 -6996925.011 -16966535.792 10 0 59909 38700.00000 0 16083426.084 -5454727.384 -19013362.683 10 0 59909 39600.00000 0 14451456.506 -3616660.268 -20690297.115 10 0 59909 40500.00000 0 12859355.725 -1511814.515 -21964805.110 10 0 59909 41400.00000 0 11363721.637 818905.189 -22812201.753 10 0 59909 42300.00000 0 10013620.405 3324244.571 -23216123.993 10 0 59909 43200.00000 0 8848606.221 5944501.870 -23168840.097 10 0 59909 44100.00000 0 7897160.716 8613788.700 -22671390.565 10 0 59909 45000.00000 0 7175616.252 11262555.682 -21733558.539 10 0 59909 45900.00000 0 6687606.743 13820278.116 -20373671.048 10 0 59909 46800.00000 0 6424067.469 16218190.458 -18618235.436 10 0 59909 47700.00000 0 6363782.333 18391956.399 -16501418.497 10 0 59909 48600.00000 0 6474454.093 20284164.263 -14064378.641 10 0 59909 49500.00000 0 6714251.305 21846544.728 -11354464.111 10 0 59909 50400.00000 0 7033765.859 23041819.449 -8424292.865 10 0 59909 51300.00000 0 7378297.897 23845104.539 -5330731.889 10 0 59909 52200.00000 0 7690371.271 24244811.461 -2133795.579 10 0 59909 53100.00000 0 7912373.191 24243008.666 1104515.485 10 0 59909 54000.00000 0 7989206.527 23855229.868 4321413.046 10 0 59909 54900.00000 0 7870842.810 23109737.778 7454533.941 10 0 59909 55800.00000 0 7514668.192 22046274.749 10443143.787 10 0 59909 56700.00000 0 6887523.306 20714353.070 13229308.593 10 0 59909 57600.00000 0 5967350.775 19171156.635 15759012.024 10 0 59909 58500.00000 0 4744380.516 17479141.784 17983197.066 10 0 59909 59400.00000 0 3221802.169 15703437.363 19858712.477 10 0 59909 60300.00000 0 1415895.252 13909152.277 21349146.255 10 0 59909 61200.00000 0 -644389.849 12158702.469 22425530.422 10 0 59909 62100.00000 0 -2918384.267 10509268.356 23066903.878 10 0 59909 63000.00000 0 -5355148.630 9010488.236 23260722.626 10 0 59909 63900.00000 0 -7895358.121 7702483.499 23003109.335 10 0 59909 64800.00000 0 -10473548.075 6614297.684 22298937.121 10 0 59909 65700.00000 0 -13020628.386 5762814.356 21161745.267 10 0 59909 66600.00000 0 -15466563.405 5152199.037 19613487.710 10 0 59909 67500.00000 0 -17743106.894 4773888.572 17684118.124 10 0 59909 68400.00000 0 -19786478.682 4607128.532 15411018.555 10 0 59909 69300.00000 0 -21539871.597 4620036.222 12838281.671 10 0 59909 70200.00000 0 -22955683.808 4771144.634 10015859.703 10 0 59909 71100.00000 0 -23997382.800 5011362.124 6998595.934 10 0 59909 72000.00000 0 -24640922.238 5286264.759 3845157.429 10 0 59909 72900.00000 0 -24875651.664 5538623.797 616889.836 10 0 59909 73800.00000 0 -24704680.266 5711060.388 -2623382.985 10 0 59909 74700.00000 0 -24144679.086 5748713.931 -5812590.204 10 0 59909 75600.00000 0 -23225129.929 5601809.649 -8888651.194 10 0 59909 76500.00000 0 -21987052.884 5228015.157 -11791693.413 10 0 59909 77400.00000 0 -20481266.582 4594484.794 -14465226.120 10 0 59909 78300.00000 0 -18766255.192 3679503.837 -16857246.177 10 0 59909 79200.00000 0 -16905732.756 2473661.912 -18921253.783 10 0 59909 80100.00000 0 -14966008.116 980505.098 -20617157.958 10 0 59909 81000.00000 0 -13013261.765 -783361.555 -21912054.225 10 0 59909 81900.00000 0 -11110849.247 -2788726.040 -22780859.692 10 0 59909 82800.00000 0 -9316744.200 -4994757.388 -23206793.719 10 0 59909 83700.00000 0 -7681227.709 -7350488.628 -23181695.604 10 0 59909 84600.00000 0 -6244919.874 -9796733.054 -22706173.932 10 0 59909 85500.00000 0 -5037234.796 -12268353.988 -21789585.456 10 0 59910 0.00000 0 -4075322.180 -14696793.557 -20449844.785 10 0 59910 900.00000 0 -3363537.686 -17012756.765 -18713068.323 10 0 59910 1800.00000 0 -2893463.674 -19148936.246 -16613061.679 10 0 59910 2700.00000 0 -2644475.963 -21042669.124 -14190658.325 10 0 59910 3600.00000 0 -2584832.514 -22638412.653 -11492924.140 10 0 59910 4500.00000 0 -2673236.315 -23889937.449 -8572242.634 10 0 59910 5400.00000 0 -2860805.622 -24762147.376 -5485298.680 10 0 59910 6300.00000 0 -3093367.678 -25232450.948 -2291980.262 10 0 59910 7200.00000 0 -3313978.641 -25291627.676 945780.458 10 0 59910 8100.00000 0 -3465563.012 -24944153.913 4165204.459 10 0 59910 9000.00000 0 -3493561.018 -24207975.199 7303878.602 10 0 59910 9900.00000 0 -3348472.116 -23113735.082 10300960.346 10 0 59910 10800.00000 0 -2988187.245 -21703493.023 13098351.509 10 0 59910 11700.00000 0 -2380011.309 -20028985.073 15641818.696 10 0 59910 12600.00000 0 -1502290.376 -18149499.927 17882039.093 10 0 59910 13500.00000 0 -345574.503 -16129458.766 19775551.963 10 0 59910 14400.00000 0 1086733.550 -14035799.372 21285597.953 10 0 59910 15300.00000 0 2778272.184 -11935273.056 22382830.442 10 0 59910 16200.00000 0 4700163.363 -9891766.321 23045885.558 10 0 59910 17100.00000 0 6811986.894 -7963758.132 23261800.052 10 0 59910 18000.00000 0 9063247.760 -6202018.085 23026268.854 10 0 59910 18900.00000 0 11395277.271 -4647640.793 22343737.041 10 0 59910 19800.00000 0 13743490.630 -3330497.956 21227323.815 10 0 59910 20700.00000 0 16039908.315 -2268172.492 19698579.127 10 0 59910 21600.00000 0 18215837.484 -1465419.035 17787076.647 10 0 59910 22500.00000 0 20204602.322 -914173.314 15529849.866 10 0 59910 23400.00000 0 21944209.657 -594110.006 12970681.247 10 0 59910 24300.00000 0 23379838.379 -473725.505 10159257.332 10 0 59910 25200.00000 0 24466047.986 -511899.820 7150205.584 10 0 59910 26100.00000 0 25168612.965 -659871.357 4002031.472 10 0 59910 27000.00000 0 25465905.186 -863540.516 775976.579 10 0 59910 27900.00000 0 25349765.389 -1066003.764 -2465179.594 10 0 59910 28800.00000 0 24825826.425 -1210209.790 -5658349.910 10 0 59910 29700.00000 0 23913274.210 -1241623.890 -8741377.010 10 0 59910 30600.00000 0 22644056.299 -1110786.257 -11654252.681 10 0 59910 31500.00000 0 21061571.599 -775654.406 -14340294.234 10 0 59910 32400.00000 0 19218896.761 -203629.164 -16747254.143 10 0 59910 33300.00000 0 17176624.428 626822.655 -18828340.644 10 0 59910 34200.00000 0 15000404.866 1725018.439 -20543129.058 10 0 59910 35100.00000 0 12758294.686 3087432.143 -21858346.110 10 0 59910 36000.00000 0 10518024.191 4697615.882 -22748512.337 10 0 59910 36900.00000 0 8344297.877 6526674.440 -23196430.581 10 0 59910 37800.00000 0 6296240.716 8534273.141 -23193511.874 10 0 59910 38700.00000 0 4425096.216 10670137.112 -22739933.173 10 0 59910 39600.00000 0 2772271.432 12875979.420 -21844624.669 10 0 59910 40500.00000 0 1367809.096 15087777.754 -20525087.648 10 0 59910 41400.00000 0 229348.998 17238304.921 -18807046.946 10 0 59910 42300.00000 0 -638379.777 19259807.831 -16723945.219 10 0 59910 43200.00000 0 -1243516.500 21086723.626 -14316289.024 10 0 59910 44100.00000 0 -1606479.982 22658320.097 -11630859.514 10 0 59910 45000.00000 0 -1758859.711 23921150.627 -8719803.081 10 0 59910 45900.00000 0 -1741835.068 24831221.723 -5639619.545 10 0 59910 46800.00000 0 -1604190.348 25355783.121 -2450067.360 10 0 59910 47700.00000 0 -1400010.117 25474666.155 786992.949 10 0 59910 48600.00000 0 -1186152.690 25181114.941 4008794.855 10 0 59910 49500.00000 0 -1019608.728 24482076.000 7152878.418 10 0 59910 50400.00000 0 -954856.552 23397934.511 10158295.999 10 0 59910 51300.00000 0 -1041325.877 21961708.365 12966788.087 10 0 59910 52200.00000 0 -1321077.004 20217733.648 15523906.850 10 0 59910 53100.00000 0 -1826793.425 18219896.257 17780066.031 10 0 59910 54000.00000 0 -2580172.710 16029483.007 19691497.452 10 0 59910 54900.00000 0 -3590783.961 13712741.203 21221096.155 10 0 59910 55800.00000 0 -4855440.699 11338247.650 22339138.274 10 0 59910 56700.00000 0 -6358116.737 8974195.779 23023858.194 10 0 59910 57600.00000 0 -8070410.117 6685712.865 23261874.016 10 0 59910 58500.00000 0 -9952537.383 4532318.145 23048453.071 10 0 59910 59400.00000 0 -11954818.544 2565626.812 22387612.034 10 0 59910 60300.00000 0 -14019592.547 827394.785 21292049.121 10 0 59910 61200.00000 0 -16083484.892 -652014.722 19782908.847 10 0 59910 62100.00000 0 -18079934.130 -1854679.221 17889382.903 10 0 59910 63000.00000 0 -19941872.678 -2775636.058 15648153.770 10 0 59910 63900.00000 0 -21604450.336 -3422850.955 13102690.842 10 0 59910 64800.00000 0 -23007686.636 -3816637.555 10302411.820 10 0 59910 65700.00000 0 -24098940.473 -3988552.605 7301725.003 10 0 59910 66600.00000 0 -24835092.652 -3979813.694 4158970.847 10 0 59910 67500.00000 0 -25184348.766 -3839306.962 935283.484 10 0 59910 68400.00000 0 -25127585.499 -3621269.805 -2306605.234 10 0 59910 69300.00000 0 -24659182.748 -3382747.695 -5503594.998 10 0 59910 70200.00000 0 -23787305.693 -3180934.073 -8593454.669 10 0 59910 71100.00000 0 -22533624.406 -3070507.397 -11516043.105 10 0 59910 72000.00000 0 -20932482.564 -3101079.531 -14214488.196 10 0 59910 72900.00000 0 -19029550.312 -3314864.873 -16636300.264 10 0 59910 73800.00000 0 -16880018.184 -3744670.055 -18734397.497 10 0 59910 74700.00000 0 -14546408.391 -4412290.134 -20468023.013 10 0 59910 75600.00000 0 -12096095.719 -5327379.764 -21803535.768 10 0 59910 76500.00000 0 -9598642.171 -6486847.469 -22715060.217 10 0 59910 77400.00000 0 -7123057.035 -7874798.830 -23184982.623 10 0 59910 78300.00000 0 -4735096.633 -9463031.190 -23204285.145 10 0 59910 79200.00000 0 -2494715.895 -11212059.264 -22772712.002 10 0 59910 80100.00000 0 -453777.196 -13072628.705 -21898765.269 10 0 59910 81000.00000 0 1345889.285 -14987654.393 -20599531.099 10 0 59910 81900.00000 0 2873994.405 -16894502.505 -18900340.284 10 0 59910 82800.00000 0 4112806.878 -18727521.096 -16834270.158 10 0 59910 83700.00000 0 5057637.574 -20420713.667 -14441497.730 10 0 59910 84600.00000 0 5716773.065 -21910444.301 -11768516.708 10 0 59910 85500.00000 0 6110863.023 -23138061.513 -8867233.617 99